Home > Weather > Tucumán > Past weeks

Flag for Argentina Past Weather in Tucumán, Tucumán, Argentina — Yesterday and Last 2 Weeks

Now
54 °F

Overcast.


Feels Like: 53 °F
Forecast: 40 / 56 °F
Wind: 5 mph from East

Location: Tucuman Aerodrome

Current Time: Jun 27, 2016 at 3:35:44 PM

Latest Report: Jun 27, 2016 at 3:00 PM


Visibility: N/A

Pressure: 30.27 "Hg

Humidity: 63%

Dew Point: 41 °F

Location of TucumánLocation

Past Weather in Tucumán — Graph

°F

Tucumán Temperature Yesterday

Maximum temperature yesterday: 57 °F (at 3:00 PM)
Minimum temperature yesterday: 43 °F (at 8:00 AM)
Average temperature yesterday: 49 °F

High & Low Weather Summary for the Past Weeks

 TemperatureHumidityPressure
High68 °F (Jun 15, 2:00 PM)94% (Jun 12, 8:00 PM)30.42 "Hg (Jun 12, 8:00 PM)
Low41 °F (Jun 13, 9:00 AM)40% (Jun 22, 5:00 PM)29.89 "Hg (Jun 24, 4:00 AM)
Average53 °F77%30.21 "Hg
* Reported Jun 12 2:00 PM — Jun 27 2:00 PM, Tucumán, Weather by CustomWeather, © 2016

Note: Actual official high and low records may vary slightly from our data, if they occured in-between our weather recording intervals... More about our weather records

Advertising

Tucumán Weather History for the Previous 24 Hours

Scroll right to see more
 ConditionsComfort  
Time TempWeatherWind HumidityBarometerVisibility
2:00 PM
Mon, Jun 27
54 °FPartly sunny.3 mph67%30.27 "HgN/A
1:00 PM50 °FPartly sunny.6 mph76%30.30 "HgN/A
12:00 PM50 °FBroken clouds.7 mph71%30.33 "HgN/A
11:00 AM46 °FBroken clouds.5 mph76%30.33 "HgN/A
10:00 AM43 °FPartly sunny.6 mph93%30.33 "HgN/A
9:00 AM43 °FPartly sunny.8 mph93%30.33 "HgN/A
8:00 AM45 °FPartly sunny.9 mph87%30.27 "HgN/A
7:00 AM43 °FPassing clouds.9 mph93%30.27 "HgN/A
6:00 AM45 °FPassing clouds.3 mph87%30.27 "HgN/A
5:00 AM45 °FPassing clouds.14 mph93%30.27 "HgN/A
3:00 AM45 °FPassing clouds.6 mph93%30.30 "Hg4 mi
2:00 AM45 °FPartly cloudy.7 mph87%30.33 "Hg5 mi
1:00 AM46 °FPassing clouds.8 mph82%30.33 "HgN/A
12:00 AM46 °FPassing clouds.2 mph87%30.33 "HgN/A
11:00 PM
Sun, Jun 26
45 °FPassing clouds.7 mph87%30.27 "HgN/A
10:00 PM48 °FPartly cloudy.8 mph82%30.27 "HgN/A
8:00 PM52 °FPassing clouds.5 mph77%30.27 "HgN/A
7:00 PM54 °FPassing clouds.3 mph72%30.24 "HgN/A
6:00 PM54 °FPartly cloudy.5 mph72%30.21 "HgN/A
5:00 PM55 °FBroken clouds.5 mph63%30.21 "HgN/A
4:00 PM57 °FScattered clouds.9 mph55%30.21 "HgN/A
3:00 PM57 °FPartly sunny.No wind59%30.24 "HgN/A
Weather by CustomWeather, © 2016

See weather overviewHow to use our weather pages